Location: Stilling
(56.0622°N, 9.9882°E)
Time: 00:32:17
(UTC+00:00)

Cosmos 1606 - Pass Details

Date: 13 July 2020
Orbit: 505 x 527 km, 82.5° (Epoch: 03 August)

Event Time Altitude Azimuth Distance (km) Brightness Sun altitude
Rises 22:19:02 0° 341° (NNW) 2,675 8.6 -11.0°
Reaches altitude 10° 22:21:21 10° 331° (NNW) 1,782 6.8 -11.1°
Maximum altitude 22:24:47 30° 269° (W) 966 4.2 -11.2°
Drops below altitude 10° 22:28:13 10° 208° (SSW) 1,772 5.0 -11.3°
Enters shadow 22:28:16 10° 207° (SSW) 1,790 5.0 -11.3°
